This is the latest recevied weather packets stored in our database for station/object KC4JY. If no packets are shown the sender has not sent any weather packets the latest 10 day(s).
| Time | Temp. | Humidity | Pressure | Rain* | Wind** | Luminosity | Snow |
|---|---|---|---|---|---|---|---|
| 1777516246 | 19.44° C | 85% | 1008.4 hPa | 0 mm | - | - | - |
| 1777515405 | 20° C | 84% | 1008.4 hPa | 0 mm | - | - | - |
| 1777514435 | 20° C | 83% | 1008.4 hPa | 0 mm | - | - | - |
| 1777513540 | 20° C | 82% | 1008.5 hPa | 0 mm | - | - | - |
| 1777512633 | 20.56° C | 81% | 1008.4 hPa | 0 mm | - | - | - |
| 1777511736 | 20.56° C | 81% | 1008.5 hPa | 0 mm | - | - | - |
| 1777510838 | 20.56° C | 80% | 1008.3 hPa | 0 mm | - | - | - |
| 1777509990 | 21.11° C | 80% | 1008.1 hPa | 0 mm | - | - | - |
| 1777509029 | 21.11° C | 79% | 1008 hPa | 0 mm | - | - | - |
| 1777508131 | 21.11° C | 79% | 1007.8 hPa | 0 mm | - | - | - |
| 1777507212 | 21.11° C | 78% | 1007.5 hPa | 0 mm | - | - | - |
| 1777506311 | 21.67° C | 77% | 1007.5 hPa | 0 mm | - | - | - |
| 1777505453 | 22.22° C | 74% | 1007.8 hPa | 0 mm | - | - | - |
| 1777504552 | 22.78° C | 72% | 1007.9 hPa | 0 mm | - | - | - |
| 1777503634 | 23.33° C | 71% | 1007.8 hPa | 0 mm | - | - | - |
| 1777502733 | 23.33° C | 71% | 1007.8 hPa | 0 mm | - | - | - |
| 1777501814 | 23.33° C | 70% | 1008 hPa | 0 mm | - | - | - |
| 1777500913 | 23.89° C | 68% | 1007.9 hPa | 0 mm | - | - | - |
| 1777500054 | 23.89° C | 67% | 1008.1 hPa | 0 mm | - | - | - |
| 1777499166 | 23.33° C | 68% | 1008.2 hPa | 0 mm | - | - | - |
| 1777498239 | 23.33° C | 68% | 1008.4 hPa | 0 mm | - | - | - |
| 1777497346 | 23.33° C | 68% | 1008.5 hPa | 0 mm | - | - | - |
| 1777496431 | 23.33° C | 69% | 1008.7 hPa | 0 mm | - | - | - |
| 1777495534 | 23.33° C | 70% | 1009 hPa | 0 mm | - | - | - |
| 1777494626 | 23.33° C | 70% | 1009 hPa | 0 mm | - | - | - |
* Rain latest hour (hover to see other rain measurements)
** Current wind speed in m/s (hover to see current wind gust speed)